This demonstration page uses our WeatherBlox Daily Observations layout. Learn more.

Left ArrowRight Arrow

31.31129, -92.44514

Hourly Observations for August 13, 2018

Temp ( °F °C ) Dew Point ( °F °C ) Humidity (%) Winds ( mph kmh ) Pressure ( in mb ) Visibility ( mi km ) Precip ( " mm )
12:53 am 00:53 Clear 71 21.7 68 20 90 90 SE 3 6 30.08 1019 10 16 0.00 0.00
1:53 am 01:53 Clear 70 21.1 69 20.6 97 97 Calm 30.06 1018 8 13 0.00 0.00
2:53 am 02:53 Clear 70 21.1 68 20 93 93 Calm 30.06 1018 9 14 0.00 0.00
3:53 am 03:53 Clear 69 20.6 67 19.4 93 93 ESE 3 6 30.06 1018 9 14 0.00 0.00
4:53 am 04:53 Clear 69 20.6 67 19.4 93 93 Calm 30.06 1018 8 13 0.00 0.00
5:53 am 05:53 Clear 68 20 67 19.4 96 96 Calm 30.07 1018 9 14 0.00 0.00
6:53 am 06:53 Sunny with Mist and Fog 67 19.4 66 18.9 97 97 Calm 30.08 1019 6 10 0.00 0.00
7:53 am 07:53 Partly Cloudy with Mist and Fog 71 21.7 70 21.1 96 96 Calm 30.09 1019 6 10 0.00 0.00
8:53 am 08:53 Sunny 77 25 71 21.7 82 82 Calm 30.09 1019 9 14 0.00 0.00
9:53 am 09:53 Sunny 82 27.8 70 21.1 67 67 SSE 5 7 30.10 1019 9 14 0.00 0.00
10:53 am 10:53 Mostly Sunny 85 29.4 71 21.7 63 63 Calm 30.11 1020 8 13 0.00 0.00
11:53 am 11:53 Sunny 88 31.1 73 22.8 61 61 SSW 5 7 30.10 1019 7 11 0.00 0.00
12:53 pm 12:53 Sunny 89 31.7 72 22.2 57 57 VRB 3 6 30.08 1019 7 11 0.00 0.00
1:53 pm 13:53 Mostly Sunny 92 33.3 72 22.2 52 52 VRB 5 7 30.06 1018 7 11 0.00 0.00
2:53 pm 14:53 Mostly Sunny 93 33.9 70 21.1 47 47 S 8 13 30.03 1017 7 11 0.00 0.00
3:53 pm 15:53 Partly Cloudy 93 33.9 68 20 44 44 SSW 7 11 30.00 1016 8 13 0.00 0.00
4:53 pm 16:53 Sunny 94 34.4 66 18.9 40 40 VRB 5 7 29.99 1016 8 13 0.00 0.00
5:53 pm 17:53 Sunny 92 33.3 67 19.4 44 44 S 6 9 29.99 1016 8 13 0.00 0.00
6:53 pm 18:53 Sunny 90 32.2 71 21.7 54 54 S 5 7 29.99 1016 8 13 0.00 0.00
7:53 pm 19:53 Sunny 84 28.9 73 22.8 70 70 SSE 5 7 29.99 1016 7 11 0.00 0.00
8:53 pm 20:53 Clear 82 27.8 72 22.2 72 72 Calm 29.99 1016 9 14 0.00 0.00
9:53 pm 21:53 Clear 80 26.7 73 22.8 79 79 S 3 6 30.00 1016 8 13 0.00 0.00
10:53 pm 22:53 Clear 78 25.6 73 22.8 85 85 ESE 3 6 30.00 1016 8 13 0.00 0.00
11:53 pm 23:53 Clear 77 25 71 21.7 82 82 Calm 30.00 1016 8 13 0.00 0.00

Powered by AerisWeather